Location: La Silve
(44.2414°N, 5.8889°E)
Time: 09:28:55
(UTC+00:00)

Meteor 1-25 Rocket - Pass Details

Date: 01 December 2020
Orbit: 837 x 890 km, 81.2° (Epoch: 25 January)

Event Time Altitude Azimuth Distance (km) Brightness Sun altitude
Rises 16:31:15 0° 353° (N) 3,425 7.2 -6.0°
Reaches altitude 10° 16:33:44 10° 358° (N) 2,493 6.4 -6.4°
Maximum altitude 16:39:16 54° 76° (ENE) 1,047 4.4 -7.3°
Drops below altitude 10° 16:44:50 10° 153° (SSE) 2,511 6.6 -8.2°
Sets 16:47:20 0° 158° (SSE) 3,453 7.4 -8.6°
